When you browse on this site, cookies collect data to enhance your experience and personalize the content and advertising you see.
Visit our Privacy Policy to learn more. By continuing to use the site, you agree to this use of cookies and data.
  • In Germany
  • List of Countries
  • For 7 days
  • Water Temperature
  • Weather Map
  • Weather Widgets
  • user-avatar
    Login

    Hourly Weather Ordino

    Today, 23 August, Friday

    Time Temperature Precipitation Wind Pressure Humidity
    00:00 +11°C° 0 mm 1 mps 637 mmHg 61%
    01:00 +11°C° 0 mm 1 mps 637 mmHg 65%
    02:00 +11°C° 0 mm 1 mps 637 mmHg 68%
    03:00 +11°C° 0 mm 1 mps 636 mmHg 72%
    04:00 +11°C° 0 mm 1 mps 636 mmHg 75%
    05:00 +12°C° 0 mm 1 mps 636 mmHg 79%
    06:00 +13°C° 0 mm 1 mps 637 mmHg 80%
    07:00 +15°C° 0 mm 1 mps 638 mmHg 68%
    08:00 +19°C° 0 mm 1 mps 639 mmHg 55%
    09:00 +22°C° 0 mm 1 mps 640 mmHg 42%
    10:00 +23°C° 0 mm 1 mps 640 mmHg 40%
    11:00 +24°C° 0 mm 1 mps 640 mmHg 37%
    12:00 +25°C° 0 mm 2 mps 640 mmHg 34%
    13:00 +25°C° 0 mm 2 mps 640 mmHg 36%
    14:00 +25°C° 0 mm 2 mps 639 mmHg 37%
    15:00 +25°C° 0 mm 2 mps 639 mmHg 39%
    16:00 +23°C° 0 mm 1 mps 638 mmHg 47%
    17:00 +21°C° 0 mm 1 mps 638 mmHg 56%
    18:00 +18°C° 0 mm 0 mps 637 mmHg 64%
    19:00 +18°C° 0 mm 1 mps 637 mmHg 68%
    20:00 +16°C° 0 mm 1 mps 636 mmHg 72%
    21:00 +15°C° 0 mm 1 mps 636 mmHg 76%
    22:00 +14°C° 0 mm 1 mps 636 mmHg 76%
    23:00 +14°C° 0 mm 1 mps 636 mmHg 75%

    Tomorrow, 24 August, Saturday

    Time Temperature Precipitation Wind Pressure Humidity
    00:00 +14°C° 0 mm 1 mps 636 mmHg 75%
    01:00 +14°C° 0 mm 1 mps 636 mmHg 75%
    02:00 +14°C° 0 mm 1 mps 636 mmHg 74%
    03:00 +14°C° 0 mm 1 mps 636 mmHg 74%
    04:00 +14°C° 0 mm 1 mps 636 mmHg 74%
    05:00 +14°C° 0 mm 1 mps 636 mmHg 73%
    06:00 +14°C° 0 mm 1 mps 636 mmHg 73%
    07:00 +18°C° 0 mm 1 mps 637 mmHg 63%
    08:00 +21°C° 0 mm 1 mps 638 mmHg 53%
    09:00 +24°C° 0 mm 1 mps 639 mmHg 43%
    10:00 +25°C° 0 mm 1 mps 639 mmHg 40%
    11:00 +25°C° 0 mm 1 mps 639 mmHg 36%
    12:00 +26°C° 0 mm 2 mps 639 mmHg 33%
    13:00 +25°C° 0 mm 2 mps 639 mmHg 35%
    14:00 +25°C° 0 mm 1 mps 638 mmHg 37%
    15:00 +25°C° 0 mm 1 mps 638 mmHg 39%
    16:00 +23°C° 0 mm 1 mps 637 mmHg 46%
    17:00 +22°C° 0 mm 1 mps 637 mmHg 52%
    18:00 +20°C° 0 mm 1 mps 636 mmHg 59%
    19:00 +19°C° 0 mm 1 mps 636 mmHg 60%
    20:00 +18°C° 0 mm 1 mps 636 mmHg 61%
    21:00 +15°C° 0 mm 1 mps 636 mmHg 61%
    22:00 +15°C° 0 mm 1 mps 636 mmHg 61%
    23:00 +15°C° 0 mm 1 mps 635 mmHg 61%

    Day after tomorrow, 25 August, Sunday

    Time Temperature Precipitation Wind Pressure Humidity
    00:00 +14°C° 0 mm 1 mps 635 mmHg 60%
    01:00 +14°C° 0 mm 1 mps 635 mmHg 59%
    02:00 +14°C° 0 mm 1 mps 635 mmHg 58%
    03:00 +14°C° 0 mm 1 mps 635 mmHg 57%
    04:00 +14°C° 0 mm 1 mps 635 mmHg 58%
    05:00 +14°C° 0 mm 1 mps 635 mmHg 58%
    06:00 +14°C° 0 mm 1 mps 635 mmHg 58%
    07:00 +18°C° 0 mm 1 mps 636 mmHg 52%
    08:00 +21°C° 0 mm 1 mps 638 mmHg 45%
    09:00 +24°C° 0 mm 1 mps 639 mmHg 39%
    10:00 +25°C° 0 mm 1 mps 639 mmHg 37%
    11:00 +26°C° 0 mm 1 mps 639 mmHg 35%
    12:00 +26°C° 0 mm 2 mps 639 mmHg 33%
    13:00 +26°C° 0 mm 2 mps 638 mmHg 36%
    14:00 +25°C° 0 mm 2 mps 638 mmHg 40%
    15:00 +25°C° 0 mm 2 mps 637 mmHg 43%
    16:00 +23°C° 0 mm 1 mps 637 mmHg 51%
    17:00 +22°C° 0 mm 1 mps 636 mmHg 59%
    18:00 +20°C° 0 mm 1 mps 635 mmHg 66%
    19:00 +19°C° 0 mm 1 mps 635 mmHg 69%
    20:00 +18°C° 0 mm 1 mps 635 mmHg 72%
    21:00 +16°C° 0 mm 1 mps 635 mmHg 75%
    22:00 +15°C° 0 mm 1 mps 635 mmHg 77%
    23:00 +15°C° 0 mm 1 mps 635 mmHg 79%

    26 August, Monday

    Time Temperature Precipitation Wind Pressure Humidity
    00:00 +15°C° 0 mm 1 mps 635 mmHg 80%
    01:00 +14°C° 0 mm 1 mps 635 mmHg 80%
    02:00 +14°C° 0 mm 1 mps 634 mmHg 79%
    03:00 +14°C° 0 mm 1 mps 634 mmHg 79%
    04:00 +14°C° 0 mm 1 mps 634 mmHg 78%
    05:00 +14°C° 0 mm 1 mps 634 mmHg 77%
    06:00 +14°C° 0 mm 1 mps 634 mmHg 76%
    07:00 +18°C° 0 mm 1 mps 635 mmHg 68%
    08:00 +20°C° 0 mm 1 mps 636 mmHg 60%
    09:00 +23°C° 0 mm 1 mps 637 mmHg 53%
    10:00 +24°C° 0 mm 1 mps 637 mmHg 48%
    11:00 +24°C° 0 mm 2 mps 637 mmHg 44%
    12:00 +25°C° 0 mm 2 mps 637 mmHg 39%
    13:00 +25°C° 0 mm 2 mps 637 mmHg 40%
    14:00 +25°C° 0 mm 2 mps 637 mmHg 40%
    15:00 +25°C° 0 mm 2 mps 636 mmHg 40%
    16:00 +23°C° 0 mm 2 mps 636 mmHg 47%
    17:00 +22°C° 0 mm 1 mps 635 mmHg 53%
    18:00 +20°C° 0 mm 1 mps 634 mmHg 60%
    19:00 +18°C° 0 mm 1 mps 634 mmHg 63%
    20:00 +16°C° 0 mm 1 mps 634 mmHg 66%
    21:00 +14°C° 0 mm 1 mps 633 mmHg 69%
    22:00 +14°C° 0 mm 1 mps 634 mmHg 68%
    23:00 +14°C° 0 mm 1 mps 634 mmHg 67%

    27 August, Tuesday

    Time Temperature Precipitation Wind Pressure Humidity
    00:00 +14°C° 0 mm 1 mps 634 mmHg 66%
    01:00 +14°C° 0 mm 1 mps 634 mmHg 68%
    02:00 +14°C° 0 mm 1 mps 633 mmHg 69%
    03:00 +13°C° 0 mm 1 mps 633 mmHg 71%
    04:00 +14°C° 0 mm 1 mps 634 mmHg 71%
    05:00 +13°C° 0 mm 0 mps 634 mmHg 71%
    06:00 +13°C° 0 mm 0 mps 634 mmHg 72%
    07:00 +16°C° 0 mm 1 mps 635 mmHg 66%
    08:00 +18°C° 0 mm 1 mps 635 mmHg 59%
    09:00 +19°C° 0 mm 2 mps 636 mmHg 53%
    10:00 +19°C° 0.1 mm 2 mps 636 mmHg 56%
    11:00 +19°C° 0.1 mm 2 mps 636 mmHg 58%
    12:00 +20°C° 0.1 mm 2 mps 637 mmHg 60%
    13:00 +19°C° 0.4 mm 1 mps 636 mmHg 68%
    14:00 +18°C° 0.4 mm 1 mps 635 mmHg 76%
    15:00 +16°C° 0.4 mm 1 mps 635 mmHg 85%
    16:00 +15°C° 0.4 mm 1 mps 635 mmHg 87%
    17:00 +15°C° 0.4 mm 1 mps 635 mmHg 89%
    18:00 +15°C° 0.4 mm 1 mps 635 mmHg 91%
    19:00 +14°C° 0.1 mm 1 mps 635 mmHg 92%
    20:00 +14°C° 0.1 mm 1 mps 635 mmHg 93%
    21:00 +13°C° 0.1 mm 1 mps 635 mmHg 95%
    22:00 +13°C° 0 mm 1 mps 635 mmHg 95%
    23:00 +13°C° 0 mm 1 mps 635 mmHg 95%

    28 August, Wednesday

    Time Temperature Precipitation Wind Pressure Humidity
    00:00 +13°C° 0 mm 1 mps 635 mmHg 95%
    01:00 +12°C° 0 mm 1 mps 635 mmHg 94%
    02:00 +12°C° 0 mm 1 mps 635 mmHg 93%
    03:00 +12°C° 0 mm 1 mps 635 mmHg 92%
    04:00 +12°C° 0 mm 1 mps 635 mmHg 90%
    05:00 +12°C° 0 mm 1 mps 635 mmHg 88%
    06:00 +12°C° 0 mm 1 mps 636 mmHg 86%
    07:00 +15°C° 0 mm 1 mps 637 mmHg 77%
    08:00 +18°C° 0 mm 1 mps 638 mmHg 68%
    09:00 +19°C° 0 mm 0 mps 639 mmHg 59%
    10:00 +22°C° 0 mm 1 mps 639 mmHg 53%
    11:00 +24°C° 0 mm 1 mps 639 mmHg 47%
    12:00 +25°C° 0 mm 1 mps 639 mmHg 40%
    13:00 +25°C° 0 mm 1 mps 639 mmHg 43%
    14:00 +24°C° 0 mm 1 mps 639 mmHg 45%
    15:00 +24°C° 0 mm 1 mps 638 mmHg 47%
    16:00 +22°C° 0 mm 1 mps 638 mmHg 55%
    17:00 +21°C° 0 mm 1 mps 637 mmHg 63%
    18:00 +19°C° 0 mm 1 mps 637 mmHg 71%
    19:00 +18°C° 0 mm 1 mps 636 mmHg 73%
    20:00 +15°C° 0 mm 1 mps 636 mmHg 75%
    21:00 +14°C° 0 mm 1 mps 636 mmHg 77%
    22:00 +14°C° 0 mm 1 mps 636 mmHg 73%
    23:00 +14°C° 0 mm 1 mps 636 mmHg 68%
    Show more